C/2022 T1 ( Lemmon )

Japanese version
Home page
Updated on May 28, 2023

---------------------------------------------------------------------

* Profile

Discovery Date October 3, 2022
Magnitude 21.2 mag
Discoverer Mt. Lemmon Survey

* Pictures

* Orbital Elements

Epoch 2023 Feb. 25.0 TT = JDT 2460000.5
T 2024 Feb. 17.61365 TT                                 Rudenko
q   3.4445452            (2000.0)            P               Q
z  +0.0001924      Peri.  324.33008     -0.89464619     +0.31049184
 +/-0.0000258      Node   236.92413     -0.26597805     -0.94788378
e   0.9993371      Incl.   22.54317     -0.35897615     -0.07149239
>From 205 observations 2022 Oct. 3-2023 Apr. 20, mean residual 0".5.

* Finding Charts

* Magnitudes Graph

        m1 = 8.5 + 5 log d + 10.0 log r

---------------------------------------------------------------------

The orbital elements are published on M.P.E.C. 2023-H131.
The charts are made with StellaNavigator Ver.10 (AstroArts).
The magnitudes graphs are made with Comet for Windows.

---------------------------------------------------------------------

Copyright(C) Seiichi Yoshida (comet@aerith.net). All rights reserved.